Regional Weather Roundup
Issued by NWS

Home | Current Version | Previous Version | Graphics & Text | Print | Product List | Glossary On
Versions: 1 2 3 4 5 6 7 8 9 10 11 12 13 14 15 16 17 18 19 20 21 22 23 24 25 26 27 28 29 30 31 32 33 34 35 36 37 38 39 40 41 42 43 44 45 46 47 48 49 50
000
ASUS43 KOAX 250502
RWRNE

WEATHER ROUNDUP FOR NEBRASKA
NATIONAL WEATHER SERVICE OMAHA NE
1200 AM CDT SUN JUN 25 2017

NOTES: SATELLITE DATA IS BEING USED TO AUGMENT CLOUD COVER ABOVE
       12000 FEET.
       "FAIR" INDICATES FEW OR NO CLOUDS BELOW 12,000 FEET WITH NO
       SIGNIFICANT WEATHER AND/OR OBSTRUCTIONS TO VISIBILITY.

  * THESE STATIONS DO NOT REPORT WEATHER SUCH AS RAIN...SNOW OR FOG.

NEZ001>004-019>022-054>056-250600-
NEBRASKA PANHANDLE

CITY           SKY/WX    TMP DP  RH WIND       PRES   REMARKS
SCOTTSBLUFF    CLOUDY    57  41  55 NE6       30.33R
ALLIANCE       CLEAR     54  39  57 E8        30.33R
CHADRON        PTCLDY    54  40  59 N6        30.33R
GORDON         MOCLDY    51  39  63 CALM      30.34R
KIMBALL        CLEAR     53  42  66 E8        30.37S
SIDNEY         CLEAR     52  38  58 E7        30.35S
$$

NEZ057>060-069>072-079>082-250600-
SOUTHWEST NEBRASKA

CITY           SKY/WX    TMP DP  RH WIND       PRES   REMARKS
NORTH PLATTE   CLEAR     49  40  71 CALM      30.30R
IMPERIAL       CLEAR     54  46  74 E9        30.32R
LEXINGTON      CLEAR     54  43  68 CALM      30.28S
MCCOOK         PTCLDY    58  51  78 N5        30.30R
OGALLALA       CLEAR     53  38  55 CALM      30.32S
$$

NEZ005>010-023>029-035>040-094-250600-
NORTH CENTRAL NEBRASKA

CITY           SKY/WX    TMP DP  RH WIND       PRES   REMARKS
VALENTINE      CLEAR     58  30  34 NE8       30.31R
AINSWORTH      CLEAR     53  36  52 NE6       30.31R
BROKEN BOW     CLEAR     51  42  71 N8        30.28R
O`NEILL        CLEAR     55  38  53 N6        30.29R
ORD            CLEAR     50  41  71 NW3       30.26R
THEDFORD       CLEAR     58  36  42 CALM      30.32R
$$

NEZ041-046>049-061>064-073>077-083>087-250600-
SOUTH CENTRAL NEBRASKA

CITY           SKY/WX    TMP DP  RH WIND       PRES   REMARKS
GRAND ISLAND   CLEAR     57  44  62 W6        30.26R
AURORA         CLEAR     54  46  74 W6        30.25R
HASTINGS       MOCLDY    58  45  62 CALM      30.27R
HEBRON         CLEAR     60  50  68 SW5       30.24S
HOLDREGE       CLEAR     59  42  53 CALM      30.28S
KEARNEY *      PTCLDY    63  43  48 SW6       30.28R
YORK           CLEAR     57  46  67 NW7       30.25R
$$

NEZ011>018-030>034-042>045-250600-
NORTHEAST NEBRASKA

CITY           SKY/WX    TMP DP  RH WIND       PRES   REMARKS
NORFOLK        PTCLDY    58  37  45 N6        30.25R
ALBION         CLEAR     52  40  63 N5        30.26R
BLAIR          CLEAR     63  40  42 N6        30.21R
FREMONT        PTCLDY    60  42  51 CALM      30.22R
TEKAMAH        CLEAR     55  39  54 N8        30.21R
WAYNE          CLEAR     50  42  75 CALM      30.24R
$$

NEZ050>053-065>068-078-088>093-250600-
SOUTHEAST NEBRASKA

CITY           SKY/WX    TMP DP  RH WIND       PRES   REMARKS
LINCOLN        PTCLDY    64  43  46 NW6       30.23R
OMAHA EPPLEY   CLEAR     60  46  59 N5        30.20R
BEATRICE       PTCLDY    59  50  72 CALM      30.22R
FALLS CITY     PTCLDY    62  46  55 W8        30.18R
NEBRASKA CITY  CLEAR     62  49  62 NW6       30.20R
PLATTSMOUTH    CLEAR     62  44  51 W3        30.20R
$$

NEZ044-045-051>053-067-250600-
OMAHA AREA

CITY           SKY/WX    TMP DP  RH WIND       PRES   REMARKS
OMAHA EPPLEY   CLEAR     60  46  59 N5        30.20R
BLAIR          CLEAR     63  40  42 N6        30.21R
FREMONT        PTCLDY    60  42  51 CALM      30.22R
MILLARD        CLEAR     65  46  50 NW5       30.20R
OFFUTT AFB     CLEAR     57  46  65 N3        30.19R
PLATTSMOUTH    CLEAR     62  44  51 W3        30.20R
WAHOO          FAIR      62  40  44 NW6       30.22R
$$



USA.gov is the U.S. government's official web portal to all federal, state and local government web resources and services.